Temperature
3 3 2 2 2 2 1 1 0 -0 -0 0 0 1 1 1 1 1 1 1 1 1 1 1 0 0 0 0 0 1 1 2 2 3 4 4 5 5
2 2 2 1 1 1 0 0 -0 -0 -1 -0 -0 -1 -1 -1 -1 -1 -0 -0 0 0 0 -0 -0 -1 -1 -1 -1 -0 0 0 1 2 2 3 4 4
2 1 1 0 -0 -0 -1 -1 -1 -1 -1 -1 -1 -1 -2 -2 -2 -2 -1 -1 -1 -1 -1 -1 -1 -1 -1 -1 -1 -1 -1 -0 0 1 1 2 3 3
1 0 -0 -1 -1 -1 -2 -2 -2 -2 -2 -2 -2 -2 -2 -2 -3 -2 -2 -2 -2 -2 -2 -2 -2 -2 -2 -2 -2 -1 -1 -1 -0 0 1 1 2 2
-1 -1 -1 -2 -2 -2 -3 -3 -3 -3 -3 -3 -3 -3 -3 -3 -3 -3 -3 -3 -2 -2 -2 -2 -2 -2 -2 -2 -2 -2 -2 -2 -1 -1 -0 0 1 1
-1 -2 -3 -3 -3 -4 -4 -4 -4 -4 -4 -4 -4 -4 -4 -3 -3 -3 -3 -3 -3 -3 -3 -3 -3 -3 -3 -3 -3 -2 -2 -2 -2 -1 -1 -0 -0 0
-3 -3 -4 -4 -4 -4 -4 -4 -4 -4 -4 -4 -4 -4 -4 -4 -4 -4 -4 -3 -3 -3 -3 -3 -3 -3 -3 -3 -3 -3 -3 -3 -2 -2 -2 -1 -1 -0
-3 -4 -4 -4 -5 -5 -5 -4 -4 -4 -4 -4 -4 -4 -4 -4 -4 -4 -4 -4 -4 -4 -3 -3 -3 -3 -3 -3 -3 -3 -3 -3 -3 -2 -2 -2 -1 -1
-4 -5 -5 -5 -5 -5 -5 -5 -5 -4 -4 -4 -4 -4 -4 -4 -4 -4 -4 -4 -4 -4 -4 -4 -4 -4 -3 -3 -3 -3 -3 -3 -3 -3 -3 -2 -2 -2
-5 -5 -5 -5 -5 -5 -5 -5 -4 -4 -4 -4 -4 -4 -4 -4 -4 -4 -4 -4 -4 -4 -4 -4 -4 -4 -4 -3 -3 -4 -4 -4 -4 -3 -3 -3 -3 -2
-5 -5 -5 -5 -5 -5 -5 -4 -4 -4 -4 -4 -4 -4 -4 -4 -4 -4 -4 -4 -4 -4 -4 -4 -4 -4 -4 -4 -4 -4 -4 -4 -4 -4 -4 -4 -3 -3
-5 -5 -5 -5 -5 -5 -5 -5 -5 -5 -4 -4 -4 -4 -4 -4 -4 -4 -4 -4 -4 -4 -4 -4 -4 -4 -4 -4 -4 -4 -4 -4 -4 -4 -4 -4 -4 -4
-5 -5 -5 -6 -5 -5 -5 -5 -5 -5 -4 -5 -4 -4 -4 -4 -4 -4 -5 -5 -5 -5 -4 -5 -4 -5 -5 -5 -4 -4 -4 -4 -5 -5 -4 -4 -4 -4
-6 -6 -6 -6 -6 -5 -5 -5 -5 -5 -5 -5 -5 -5 -5 -5 -5 -5 -5 -5 -5 -5 -5 -5 -5 -5 -5 -5 -5 -5 -5 -5 -5 -5 -5 -5 -5 -5
-6 -6 -6 -6 -6 -6 -6 -6 -6 -6 -6 -6 -6 -6 -5 -5 -5 -5 -5 -5 -5 -5 -5 -5 -5 -5 -5 -5 -5 -5 -5 -5 -5 -5 -5 -5 -5 -5
-6 -6 -6 -6 -6 -6 -6 -6 -6 -6 -6 -6 -6 -6 -6 -6 -6 -6 -6 -6 -6 -6 -6 -6 -6 -6 -6 -6 -6 -6 -6 -6 -5 -5 -6 -6 -6 -5
-6 -6 -6 -6 -6 -6 -6 -6 -7 -7 -7 -7 -6 -6 -6 -6 -6 -6 -6 -6 -6 -6 -6 -6 -6 -6 -6 -6 -6 -6 -6 -6 -6 -6 -6 -6 -6 -6
-7 -7 -7 -7 -7 -7 -7 -7 -7 -7 -7 -7 -7 -7 -7 -7 -7 -7 -7 -7 -7 -6 -6 -6 -6 -7 -7 -7 -6 -6 -6 -6 -6 -6 -6 -7 -6 -6
-7 -7 -8 -8 -7 -7 -7 -8 -7 -7 -7 -7 -7 -7 -7 -7 -7 -7 -7 -7 -7 -7 -7 -7 -7 -7 -7 -7 -6 -6 -6 -6 -7 -7 -7 -7 -7 -6
-8 -8 -8 -8 -8 -8 -8 -8 -8 -8 -8 -8 -8 -7 -7 -7 -7 -7 -7 -7 -7 -7 -7 -7 -7 -7 -7 -7 -7 -7 -7 -7 -7 -7 -7 -7 -7 -7
-8 -8 -8 -8 -8 -8 -8 -8 -8 -8 -8 -8 -8 -8 -8 -8 -8 -7 -7 -7 -7 -7 -7 -7 -7 -7 -7 -8 -8 -7 -7 -7 -7 -7 -8 -8 -8 -8
-9 -9 -9 -9 -9 -9 -9 -9 -9 -8 -8 -8 -8 -8 -8 -8 -8 -8 -8 -8 -8 -8 -8 -7 -7 -8 -8 -8 -8 -8 -7 -7 -7 -8 -8 -8 -8 -8
-9 -9 -9 -9 -9 -9 -9 -9 -9 -9 -9 -9 -9 -8 -8 -8 -8 -8 -8 -8 -8 -8 -8 -8 -8 -8 -8 -8 -8 -8 -8 -8 -8 -8 -8 -8 -8 -9
Wind_Speed
9 10 10 9 9 9 9 9 13 20 18 10 7 7 8 14 19 19 16 23 28 29 29 29 30 31 32 33 34 35 36 37 37 38 38 38 39 39
8 10 10 9 9 8 9 9 10 15 21 11 8 8 9 12 22 21 19 27 29 29 30 30 30 31 32 33 33 34 35 36 37 38 39 39 38 38
10 10 11 11 9 8 8 9 9 10 19 17 9 7 9 10 11 14 18 17 19 28 31 31 31 31 31 32 32 33 34 34 35 36 37 38 38 37
10 10 11 11 11 9 8 10 10 10 14 20 13 8 10 10 11 12 13 16 13 25 30 31 31 31 31 31 31 32 32 32 33 34 35 37 37 37
10 11 12 12 14 12 12 12 12 13 12 16 18 11 9 10 11 13 14 12 15 22 27 29 30 31 30 30 30 31 30 31 31 32 33 34 35 36
11 12 13 14 15 15 15 14 13 14 13 15 17 13 11 9 9 11 12 10 12 14 18 22 26 29 29 29 29 28 28 29 30 31 31 32 32 33
12 12 14 19 23 20 17 13 13 13 14 15 16 15 13 10 10 10 14 11 11 10 11 12 12 10 13 22 25 26 27 28 29 30 30 30 30 31
12 12 14 18 22 27 29 27 23 17 14 15 15 16 15 12 11 11 13 14 13 6 9 12 9 10 9 8 20 25 26 26 26 27 28 29 28 28
12 12 15 16 21 15 21 27 25 28 27 20 18 18 16 13 13 15 14 15 15 7 7 12 8 10 9 13 23 24 24 25 25 25 25 25 26 26
12 13 15 15 16 18 15 15 15 16 20 16 15 17 17 15 15 16 17 17 15 11 10 13 10 10 11 9 19 23 24 24 23 23 23 23 23 23
12 13 15 15 23 28 20 16 16 15 20 26 27 25 28 28 23 13 12 13 14 10 8 9 9 8 8 8 13 21 23 23 22 22 21 21 20 19
11 12 20 22 26 28 18 15 18 16 14 15 18 20 18 19 24 15 11 13 13 9 6 7 7 6 6 6 8 8 11 17 21 21 20 19 18 10
12 11 11 24 28 29 26 17 21 21 14 13 12 11 10 10 10 10 10 11 13 10 5 5 6 6 6 4 4 6 7 6 7 10 14 17 18 14
13 11 13 26 29 30 24 23 28 24 10 10 10 10 9 8 8 8 9 9 10 11 8 7 6 6 6 6 4 4 5 5 6 6 6 11 14 17
14 23 27 30 28 20 22 27 22 11 9 10 11 10 7 7 6 6 7 8 9 9 9 9 9 7 7 7 5 4 3 4 6 6 5 6 6 5
15 19 26 26 21 20 18 14 8 8 10 10 9 8 6 6 6 6 7 7 7 8 8 9 10 9 8 8 6 5 5 4 4 5 5 5 4 5
17 13 10 10 8 8 8 8 7 7 8 7 8 9 8 7 7 6 6 7 8 7 6 5 7 8 8 7 7 7 6 5 4 5 5 5 5 5
20 12 11 10 10 9 9 8 7 7 8 8 8 8 8 7 7 6 6 7 8 7 6 5 5 5 5 6 10 7 7 6 5 6 6 6 7 6
12 9 10 10 9 9 8 8 9 8 7 8 8 8 7 7 7 7 6 6 7 6 6 5 5 6 7 7 6 11 8 6 6 7 7 7 7 6
8 9 10 10 9 9 9 9 9 8 7 8 8 7 7 7 7 7 6 6 6 5 5 5 6 8 9 6 4 5 12 8 7 7 7 5 5 8
9 9 9 9 9 9 8 8 8 8 8 8 8 8 7 7 7 7 6 9 7 5 6 6 7 9 5 3 4 4 5 12 11 7 6 6 6 6
10 10 9 9 9 9 9 9 8 8 8 7 7 7 7 7 7 8 6 6 6 6 7 5 4 4 5 7 7 6 5 5 11 15 14 12 6 7
10 10 10 9 9 8 8 9 9 8 7 7 7 7 7 6 6 6 7 6 6 6 6 5 4 4 5 6 7 6 7 7 6 7 9 15 20 20
Wind_Direction
256 257 258 258 255 255 254 254 270 284 283 269 261 263 276 285 289 290 279 274 272 270 269 269 270 271 271 270 269 267 265 264 264 263 260 255 250 244
261 263 264 264 260 256 254 256 255 268 280 275 261 258 267 278 283 286 285 285 281 277 275 273 273 273 273 271 269 268 265 263 261 260 260 257 253 249
276 276 275 274 272 268 265 263 262 264 277 283 271 265 264 269 278 278 280 278 276 276 276 275 274 273 274 274 271 268 266 263 261 259 257 257 255 252
285 287 288 291 287 284 281 277 274 270 276 285 286 278 270 271 273 273 278 277 272 275 275 275 274 272 272 272 272 270 268 265 262 260 258 256 254 253
284 286 287 287 285 283 281 280 279 279 275 280 284 282 276 271 272 273 271 270 271 273 273 273 273 273 272 271 271 270 268 266 263 260 259 257 256 254
273 274 276 276 278 278 278 274 274 273 271 273 279 280 276 267 265 271 274 265 266 268 269 269 269 270 269 270 271 271 269 267 264 261 258 256 255 255
273 274 278 282 282 283 281 276 270 271 273 274 277 280 278 274 270 270 274 274 267 259 262 262 262 258 262 266 269 271 270 267 265 262 259 256 254 252
284 284 286 286 286 287 286 287 284 280 279 278 280 280 280 276 273 272 275 277 277 239 249 259 247 251 248 245 258 263 266 267 266 263 260 256 254 251
287 288 290 289 291 284 284 284 283 282 281 280 279 279 280 276 275 277 273 272 272 256 252 265 250 252 247 251 258 259 261 263 265 264 262 259 254 251
282 282 284 283 282 284 278 274 269 271 273 275 271 272 272 271 264 266 270 271 269 260 246 263 257 252 250 240 251 255 259 261 262 262 261 260 257 251
282 283 285 284 286 290 289 284 282 278 278 277 275 276 276 277 275 272 268 272 275 267 233 248 257 253 247 244 245 250 254 257 258 260 259 257 255 251
286 281 285 288 290 292 291 287 287 286 279 277 276 277 277 277 279 273 270 272 275 274 232 230 243 236 252 241 235 238 246 253 255 257 257 256 253 249
292 289 285 292 294 295 295 290 288 290 284 279 277 273 267 261 260 256 252 258 266 266 240 226 238 227 234 252 237 226 222 228 243 254 258 255 250 242
296 294 291 295 296 297 298 294 295 299 295 290 286 280 272 266 262 255 249 248 252 259 254 240 244 236 236 240 238 229 219 216 217 228 233 251 254 247
293 295 298 301 302 300 296 297 299 295 290 289 286 281 273 269 269 268 262 255 255 254 250 241 243 241 236 238 227 208 211 218 212 215 218 223 226 233
293 293 296 297 295 292 294 296 289 281 286 284 284 281 276 270 269 268 272 269 266 263 245 236 236 235 241 239 233 224 204 206 207 210 212 220 219 212
300 296 293 291 286 284 286 286 283 286 289 282 283 284 281 276 272 264 263 265 264 267 262 239 230 231 236 237 236 228 216 215 208 200 205 224 229 219
307 302 299 295 292 292 294 295 290 289 288 287 285 283 282 279 279 272 262 262 263 260 256 241 221 224 230 239 231 229 219 218 214 206 204 219 233 225
307 298 295 294 293 293 292 292 293 290 289 290 289 285 283 280 278 274 266 263 261 257 250 231 217 218 229 239 238 218 217 217 210 212 213 215 227 225
288 290 293 293 293 293 293 292 292 292 289 288 287 284 281 281 279 273 265 259 260 258 252 234 222 219 227 232 230 229 216 214 215 221 221 220 231 237
292 291 291 291 292 291 290 289 289 290 288 288 287 283 279 279 279 274 269 266 263 257 251 244 236 231 221 206 234 239 229 221 221 221 211 215 228 229
289 289 290 287 287 287 287 287 287 285 284 283 281 281 278 273 275 274 268 265 259 255 255 254 233 216 207 222 237 239 240 234 234 238 236 227 218 218
288 288 289 287 285 283 283 283 283 284 282 281 280 279 276 275 274 272 267 261 259 258 256 251 235 222 223 227 235 240 239 238 235 237 242 243 243 246
Height
1482 1479 1476 1473 1471 1468 1465 1462 1457 1444 1435 1438 1439 1439 1440 1438 1436 1434 1432 1430 1429 1427 1426 1424 1423 1421 1420 1419 1418 1418 1419 1421 1423 1425 1427 1429 1432 1435
1474 1471 1467 1464 1462 1459 1456 1454 1450 1443 1429 1426 1428 1429 1428 1427 1426 1424 1421 1420 1418 1417 1416 1414 1413 1411 1410 1409 1408 1407 1408 1409 1410 1413 1415 1418 1420 1423
1466 1462 1458 1456 1452 1449 1447 1444 1440 1437 1426 1416 1419 1419 1418 1417 1415 1414 1411 1409 1407 1406 1405 1404 1402 1401 1399 1398 1397 1397 1397 1398 1399 1401 1403 1406 1409 1412
1456 1453 1449 1446 1442 1439 1436 1433 1430 1427 1422 1411 1407 1408 1407 1406 1404 1402 1401 1399 1397 1395 1394 1393 1391 1390 1389 1388 1387 1386 1386 1387 1388 1389 1392 1395 1398 1401
1447 1443 1439 1435 1431 1428 1425 1421 1419 1416 1413 1406 1398 1398 1397 1396 1394 1391 1389 1387 1386 1384 1383 1382 1381 1379 1378 1377 1376 1376 1376 1376 1377 1378 1380 1383 1386 1390
1437 1433 1429 1426 1421 1418 1415 1411 1409 1406 1403 1398 1392 1388 1387 1386 1385 1381 1378 1376 1375 1374 1372 1371 1370 1369 1368 1368 1367 1366 1365 1365 1366 1367 1369 1372 1375 1378
1427 1424 1420 1417 1413 1410 1407 1403 1400 1397 1393 1389 1384 1380 1378 1377 1375 1373 1369 1366 1364 1364 1362 1360 1360 1359 1358 1358 1357 1356 1356 1355 1356 1357 1359 1361 1364 1367
1418 1414 1411 1407 1403 1400 1398 1395 1393 1389 1385 1381 1377 1373 1370 1369 1367 1364 1361 1358 1353 1354 1353 1350 1350 1348 1348 1348 1348 1347 1346 1346 1346 1347 1348 1351 1354 1357
1410 1406 1401 1398 1395 1391 1388 1385 1382 1380 1378 1375 1369 1365 1362 1360 1358 1355 1353 1350 1346 1345 1345 1340 1340 1338 1339 1339 1339 1338 1338 1337 1337 1338 1339 1341 1344 1347
1403 1398 1394 1389 1387 1383 1379 1375 1372 1369 1367 1364 1360 1356 1353 1351 1349 1346 1343 1339 1336 1336 1336 1332 1330 1330 1330 1329 1330 1330 1330 1330 1330 1330 1331 1333 1335 1338
1394 1390 1387 1382 1379 1376 1372 1366 1362 1359 1357 1354 1351 1347 1345 1342 1341 1338 1334 1331 1327 1326 1326 1324 1322 1322 1321 1320 1321 1322 1322 1322 1322 1323 1324 1325 1327 1330
1385 1382 1379 1375 1371 1368 1364 1358 1353 1349 1346 1343 1340 1337 1334 1332 1331 1329 1326 1323 1320 1317 1317 1316 1315 1315 1313 1312 1313 1314 1315 1315 1316 1317 1317 1319 1321 1323
1378 1373 1370 1367 1363 1359 1355 1350 1345 1341 1337 1333 1329 1326 1324 1322 1321 1319 1317 1315 1312 1310 1310 1310 1308 1308 1307 1306 1306 1307 1308 1309 1310 1311 1311 1313 1315 1317
1371 1366 1361 1358 1354 1350 1346 1341 1337 1333 1329 1325 1321 1318 1316 1314 1312 1310 1308 1306 1305 1303 1302 1302 1301 1301 1301 1301 1301 1301 1302 1303 1304 1305 1306 1307 1309 1311
1363 1358 1354 1349 1345 1340 1336 1332 1329 1325 1321 1317 1313 1310 1308 1306 1304 1302 1300 1298 1296 1295 1295 1295 1295 1295 1295 1295 1295 1296 1297 1298 1299 1300 1302 1303 1304 1306
1354 1349 1345 1340 1336 1332 1328 1325 1321 1318 1314 1311 1307 1304 1302 1299 1297 1295 1293 1291 1289 1288 1288 1288 1288 1288 1288 1289 1290 1290 1292 1293 1294 1296 1297 1299 1300 1302
1347 1341 1336 1331 1327 1324 1321 1317 1314 1311 1308 1304 1301 1298 1295 1293 1291 1289 1288 1286 1284 1282 1281 1282 1282 1282 1283 1284 1284 1285 1286 1287 1289 1291 1293 1294 1295 1297
1340 1334 1329 1325 1321 1318 1314 1311 1308 1305 1302 1298 1295 1293 1290 1288 1285 1284 1282 1280 1279 1277 1277 1277 1277 1277 1278 1278 1279 1279 1280 1282 1284 1286 1288 1289 1290 1292
1333 1328 1324 1320 1316 1312 1309 1305 1302 1299 1296 1293 1290 1287 1285 1282 1280 1278 1276 1275 1273 1272 1272 1272 1272 1272 1273 1272 1272 1274 1275 1276 1278 1280 1281 1283 1284 1286
1327 1322 1318 1314 1310 1307 1303 1300 1296 1293 1290 1287 1285 1282 1280 1277 1275 1273 1271 1270 1268 1267 1267 1266 1267 1267 1267 1267 1267 1268 1270 1271 1272 1273 1275 1277 1279 1281
1320 1316 1312 1308 1305 1301 1298 1294 1291 1288 1285 1282 1279 1277 1274 1272 1270 1268 1266 1265 1264 1263 1262 1261 1261 1262 1262 1263 1262 1261 1263 1265 1266 1267 1269 1271 1272 1273
1313 1309 1305 1302 1298 1295 1291 1288 1285 1282 1279 1276 1274 1271 1269 1267 1265 1263 1261 1260 1259 1257 1256 1256 1256 1256 1257 1256 1256 1256 1257 1259 1260 1261 1263 1264 1265 1265
1307 1303 1299 1295 1292 1288 1285 1282 1279 1276 1273 1271 1268 1266 1264 1261 1260 1258 1256 1255 1253 1252 1251 1251 1250 1250 1250 1250 1251 1251 1251 1252 1253 1253 1254 1256 1257 1259